[[{"header":{"parameterUnit":"m.s-1","parameterCategory":1,"la1":30.2991,"la2":30.254,"lo1":-89.0895,"lo2":-89.0444,"dy":0.0017,"dx":0.0017,"nx":28,"ny":28,"refTime":"2024-07-25T21:00:00:Z","depth":0,"parameterNumber":2,"parameterNumberName":"U-component_of_WINDS"},"data":[0,0,0,0,0,0,0,0,0,0,0,0,0,0,0,0,0,0,0,0,0,0,0,0,0,0,0,0,0,0,0,0,0,0,0,0,0,0,0,0,0,0,0,0,0,0,0,0,0,0,0,0,0,0,0,0,0,0,-0.2705,-0.2706,0,-0.2751,-0.2751,-0.2752,-0.2808,-0.2809,-0.2809,-0.281,-0.2856,-0.2857,-0.2857,0,0,0,0,0,0,0,0,0,0,0,0,0,-0.2666,-0.2666,-0.2705,-0.2706,-0.2706,-0.2751,-0.2752,-0.2752,-0.2808,-0.2809,-0.281,-0.2811,-0.2856,-0.2857,-0.2857,0,0,0,0,0,0,0,0,0,0,0,0,0,-0.2694,-0.2666,-0.2705,-0.2739,-0.2743,-0.2751,-0.2752,-0.2752,-0.2807,-0.2809,-0.281,-0.2811,-0.2856,-0.2857,-0.2857,-0.2835,0,0,-0.2859,-0.2859,0,0,0,0,0,0,0,0,-0.2693,-0.2696,-0.2734,-0.2737,-0.2741,-0.2775,-0.2755,-0.278,-0.2807,-0.2783,-0.281,-0.2812,-0.2828,-0.2831,-0.2837,-0.2837,-0.2839,-0.2859,-0.2859,-0.286,-0.286,0,0,0,0,0,0,0,-0.2691,-0.2694,-0.2723,-0.2734,-0.2739,-0.2752,-0.2758,-0.276,-0.2798,-0.2785,-0.2789,-0.2794,-0.283,-0.2836,-0.2838,-0.2839,-0.2859,-0.286,-0.286,-0.286,-0.2824,-0.2823,0,0,0,0,0,0,-0.2684,-0.2692,-0.2722,-0.2725,-0.272,-0.2752,-0.2758,-0.2763,-0.2798,-0.2804,-0.2793,-0.2796,-0.2834,-0.2837,-0.284,-0.2816,-0.286,-0.286,-0.2861,-0.2825,-0.2824,-0.2822,0,0,0,0,0,0,-0.2683,-0.2686,-0.272,-0.271,-0.2715,-0.2751,-0.2756,-0.2763,-0.2769,-0.2804,-0.281,-0.2792,-0.2835,-0.2839,-0.2836,-0.2819,-0.2861,-0.2861,-0.2827,-0.2825,-0.2823,-0.2768,0,0,0,0,0,0,-0.2681,-0.2685,-0.2677,-0.2709,-0.2715,-0.2715,-0.2755,-0.2763,-0.277,-0.2775,-0.2804,-0.281,-0.2837,-0.2835,-0.2836,-0.282,-0.2862,-0.2828,-0.2826,-0.2823,-0.2772,-0.2765,-0.2759,0,0,0,0,0,-0.268,-0.2659,-0.2676,-0.2679,-0.2706,-0.2714,-0.2717,-0.2748,-0.2768,-0.276,-0.2783,-0.2809,-0.282,-0.2834,-0.2836,-0.282,-0.283,-0.2827,-0.2824,-0.2775,-0.2766,-0.2759,0,0,0,0,0,0,-0.2624,-0.2664,-0.2683,-0.2673,-0.269,-0.2723,-0.2714,-0.2738,-0.2749,-0.2754,-0.2792,-0.2798,-0.279,-0.2805,-0.2819,-0.28,-0.2829,-0.2826,-0.2791,-0.2783,-0.2776,-0.2773,-0.2862,0,0,0,0,0,-0.2611,-0.2614,-0.2649,-0.2636,-0.2644,-0.2677,-0.2682,-0.2704,-0.2723,-0.273,-0.2753,-0.2769,-0.2777,-0.2781,-0.2789,-0.2774,-0.2781,-0.2764,-0.2758,-0.2752,-0.2749,-0.2743,-0.2736,-0.2812,-0.2812,-0.2812,0,0,-0.2583,-0.2605,-0.2605,-0.2626,-0.2641,-0.2644,-0.2683,-0.2684,-0.2686,-0.273,-0.2729,-0.2745,-0.2767,-0.2757,-0.2754,-0.277,-0.273,-0.2748,-0.2744,-0.2744,-0.2739,-0.2732,-0.2725,-0.281,-0.2811,-0.2811,0,0,-0.2534,-0.2551,-0.2543,-0.2558,-0.2581,-0.2603,-0.2601,-0.2631,-0.2644,-0.2643,-0.2677,-0.268,-0.2691,-0.2705,-0.2714,-0.267,-0.2695,-0.2672,-0.2637,-0.263,-0.2624,-0.2619,-0.2604,-0.2598,-0.2669,-0.2669,-0.2669,0,-0.2497,-0.2502,-0.2535,-0.2534,-0.2542,-0.2583,-0.2575,-0.2588,-0.2612,-0.2617,-0.2634,-0.2649,-0.2667,-0.2661,-0.2651,-0.2656,-0.2655,-0.2669,-0.2622,-0.2618,-0.2613,-0.2599,-0.2593,-0.2666,-0.2666,-0.2666,-0.2667,0,-0.2455,-0.2458,-0.2448,-0.2471,-0.2478,-0.2473,-0.2506,-0.2509,-0.2531,-0.2552,-0.255,-0.2573,-0.2586,-0.2587,-0.2608,-0.2584,-0.2593,-0.2616,-0.2645,-0.2602,-0.259,-0.2584,-0.2662,-0.2663,-0.2663,-0.2664,0,0,-0.2372,-0.2414,-0.241,-0.2421,-0.2449,-0.2452,-0.2449,-0.2463,-0.2465,-0.2481,-0.2479,-0.2488,-0.2509,-0.2519,-0.2542,-0.2536,-0.25,-0.2559,-0.256,-0.2547,-0.2475,-0.2458,-0.2451,-0.2517,-0.2516,-0.2515,-0.2474,0,-0.2328,-0.2326,-0.2356,-0.2345,-0.2348,-0.2387,-0.2385,-0.2402,-0.2421,-0.2427,-0.2448,-0.2454,-0.2481,-0.2487,-0.2483,-0.2505,-0.2486,-0.2509,-0.2516,-0.2516,-0.2509,-0.2445,-0.2427,-0.2386,-0.2469,-0.2468,-0.2467,0,-0.2276,-0.2289,-0.2279,-0.2308,-0.2311,-0.2308,-0.2323,-0.2328,-0.2348,-0.2363,-0.2373,-0.24,-0.2399,-0.2427,-0.2427,-0.2441,-0.2446,-0.2457,-0.2457,-0.2458,-0.2489,-0.2445,-0.2374,-0.2368,-0.246,-0.246,-0.2461,0,-0.2217,-0.2232,-0.2228,-0.2236,-0.227,-0.2267,-0.2281,-0.2303,-0.2309,-0.2322,-0.2327,-0.234,-0.2347,-0.2356,-0.2385,-0.2403,-0.2381,-0.2411,-0.2393,-0.2392,-0.2387,-0.2387,-0.2316,-0.2389,-0.239,-0.239,-0.239,0,-0.2165,-0.2157,-0.2202,-0.2199,-0.2191,-0.2226,-0.2218,-0.2236,-0.2254,-0.2256,-0.229,-0.2291,-0.2329,-0.2334,-0.2357,-0.2353,-0.2356,-0.2368,-0.2374,-0.2365,-0.2363,-0.2368,-0.2372,-0.2388,-0.2388,-0.2389,-0.2389,0,-0.2098,-0.2127,-0.2125,-0.2158,-0.2165,-0.2158,-0.2186,-0.2185,-0.2206,-0.2208,-0.221,-0.2244,-0.2251,-0.2281,-0.2296,-0.2312,-0.23,-0.2312,-0.2293,-0.2297,-0.2277,-0.2279,-0.2207,-0.22,-0.2278,-0.2277,-0.2276,0,-0.2063,-0.2058,-0.2089,-0.2093,-0.2106,-0.2111,-0.2118,-0.2152,-0.2157,-0.218,-0.2176,-0.2187,-0.2197,-0.2207,-0.2232,-0.2244,-0.2257,-0.2231,-0.2259,-0.2249,-0.2256,-0.2256,-0.2256,-0.2225,-0.2224,-0.2223,-0.2222,0,-0.1997,-0.2012,-0.2021,-0.2034,-0.2042,-0.2054,-0.2068,-0.2069,-0.2107,-0.2112,-0.212,-0.2128,-0.2143,-0.2153,-0.2169,-0.2183,-0.2209,-0.2213,-0.221,-0.22,-0.219,-0.2195,-0.2277,-0.2215,-0.2216,-0.2216,-0.2216,-0.2217,-0.1945,-0.1943,-0.1965,-0.1973,-0.1988,-0.2,-0.2001,-0.2022,-0.203,-0.2045,-0.2065,-0.207,-0.2091,-0.2115,-0.2127,-0.2132,-0.2147,-0.2141,-0.214,-0.2138,-0.2134,-0.2189,-0.2135,-0.2135,-0.2136,-0.2136,-0.2136,0,-0.1882,-0.1898,-0.1906,-0.1925,-0.1931,-0.1955,-0.1972,-0.1976,-0.1981,-0.1998,-0.2007,-0.2017,-0.2026,-0.2053,-0.2065,-0.2064,-0.2076,-0.2066,-0.2066,-0.2069,-0.212,-0.2122,-0.2056,-0.2056,-0.2056,-0.2056,-0.2056,-0.2056,-0.185,-0.1847,-0.1864,-0.1869,-0.1885,-0.1891,-0.1899,-0.191,-0.1924,-0.1933,-0.1942,-0.1959,-0.1979,-0.1994,-0.2003,-0.2011,-0.2014,-0.2,-0.2011,-0.2058,-0.2066,-0.2073,-0.2075,-0.2,-0.2,-0.196,-0.196,-0.196]},{"header":{"parameterUnit":"m.s-1","parameterCategory":1,"la1":30.2991,"la2":30.254,"lo1":-89.0895,"lo2":-89.0444,"dy":0.0017,"dx":0.0017,"nx":28,"ny":28,"refTime":"2024-07-25T21:00:00:Z","depth":0,"parameterNumber":3,"parameterNumberName":"V-component_of_WINDS"},"data":[0,0,0,0,0,0,0,0,0,0,0,0,0,0,0,0,0,0,0,0,0,0,0,0,0,0,0,0,0,0,0,0,0,0,0,0,0,0,0,0,0,0,0,0,0,0,0,0,0,0,0,0,0,0,0,0,0,0,0.2284,0.2284,0,0.2278,0.2278,0.2278,0.2235,0.2234,0.2233,0.2232,0.2226,0.2227,0.2228,0,0,0,0,0,0,0,0,0,0,0,0,0,0.2259,0.226,0.2284,0.2284,0.2284,0.2278,0.2278,0.2278,0.2235,0.2234,0.2232,0.2231,0.2226,0.2227,0.2228,0,0,0,0,0,0,0,0,0,0,0,0,0,0.2263,0.226,0.2284,0.2262,0.226,0.2278,0.2278,0.2278,0.2235,0.2234,0.2232,0.2231,0.2225,0.2227,0.2228,0.2267,0,0,0.2232,0.2232,0,0,0,0,0,0,0,0,0.2263,0.2264,0.2265,0.2263,0.2261,0.2255,0.2267,0.2274,0.2236,0.2245,0.2232,0.223,0.2237,0.2237,0.224,0.2267,0.2267,0.2232,0.2233,0.2233,0.2233,0,0,0,0,0,0,0,0.2263,0.2264,0.2282,0.2265,0.2263,0.2252,0.2251,0.2268,0.225,0.2244,0.2241,0.224,0.2236,0.2239,0.2239,0.2267,0.2232,0.2233,0.2234,0.2234,0.2325,0.2326,0,0,0,0,0,0,0.2266,0.2264,0.2282,0.2281,0.2258,0.2254,0.2253,0.2259,0.225,0.2247,0.2242,0.2238,0.2237,0.2238,0.2239,0.2284,0.2233,0.2234,0.2235,0.2323,0.2325,0.2327,0,0,0,0,0,0,0.2265,0.2268,0.2282,0.2272,0.2273,0.2256,0.2263,0.226,0.2262,0.2248,0.2245,0.2248,0.2236,0.2237,0.226,0.2283,0.2235,0.2236,0.2321,0.2324,0.2326,0.2374,0,0,0,0,0,0,0.2265,0.2268,0.2283,0.2273,0.2274,0.2304,0.2265,0.2261,0.2265,0.226,0.2253,0.225,0.2235,0.2259,0.2261,0.2284,0.2237,0.2319,0.2322,0.2325,0.2371,0.2378,0.2385,0,0,0,0,0,0.2264,0.2297,0.2284,0.2286,0.2292,0.2305,0.2306,0.2287,0.2267,0.2281,0.2272,0.225,0.228,0.2261,0.2264,0.2287,0.2318,0.2321,0.2325,0.2367,0.2377,0.2384,0,0,0,0,0,0,0.2311,0.2295,0.228,0.2311,0.231,0.2298,0.2316,0.2298,0.2302,0.2298,0.2275,0.2274,0.23,0.2296,0.2275,0.2324,0.2295,0.23,0.2326,0.2335,0.2342,0.2342,0.2238,0,0,0,0,0,0.2324,0.2336,0.2322,0.235,0.235,0.2333,0.2338,0.2324,0.2322,0.2321,0.2314,0.2313,0.2321,0.2328,0.2335,0.237,0.2367,0.2387,0.2394,0.24,0.2404,0.2421,0.243,0.2339,0.2339,0.2339,0,0,0.2353,0.2346,0.2355,0.236,0.2357,0.237,0.2333,0.2349,0.2358,0.2324,0.2345,0.2339,0.2336,0.2365,0.2377,0.2362,0.2428,0.2404,0.2409,0.241,0.2426,0.2434,0.2442,0.2342,0.2341,0.2341,0,0,0.2412,0.2408,0.2431,0.2428,0.2424,0.2413,0.2418,0.2409,0.2404,0.2424,0.2399,0.2409,0.2425,0.2424,0.2426,0.2483,0.2463,0.2486,0.2523,0.254,0.2547,0.2553,0.2573,0.2581,0.249,0.249,0.249,0,0.2448,0.2466,0.2445,0.2461,0.2464,0.2433,0.2456,0.2455,0.2454,0.2456,0.2439,0.2458,0.2454,0.2481,0.2495,0.2498,0.2503,0.2487,0.2547,0.2553,0.2559,0.2578,0.2585,0.2493,0.2493,0.2492,0.2492,0,0.2511,0.2524,0.2542,0.2541,0.2546,0.2566,0.2547,0.2554,0.2539,0.2529,0.2551,0.2544,0.255,0.2555,0.2541,0.2581,0.2572,0.2551,0.2522,0.2571,0.2588,0.2595,0.2497,0.2496,0.2495,0.2494,0,0,0.26,0.2586,0.2593,0.2592,0.2585,0.2594,0.2612,0.2617,0.2623,0.2623,0.2638,0.2651,0.2632,0.2634,0.2619,0.2634,0.2679,0.2612,0.2612,0.2625,0.2723,0.2738,0.2747,0.2666,0.2667,0.2669,0.2723,0,0.2656,0.2686,0.2666,0.2699,0.271,0.2681,0.2696,0.2693,0.2684,0.2693,0.2682,0.2692,0.2667,0.2667,0.2681,0.2671,0.2699,0.2667,0.268,0.268,0.2681,0.2756,0.2772,0.2824,0.2729,0.2731,0.2731,0,0.2726,0.2728,0.2762,0.2751,0.2755,0.277,0.2772,0.278,0.2776,0.2769,0.277,0.2751,0.2768,0.2738,0.2761,0.274,0.2744,0.274,0.2741,0.2742,0.2709,0.2759,0.284,0.2848,0.2742,0.2741,0.274,0,0.2787,0.2799,0.282,0.282,0.2808,0.2819,0.2815,0.2809,0.2813,0.2815,0.2817,0.2821,0.2824,0.2827,0.281,0.279,0.2835,0.2804,0.2829,0.283,0.284,0.284,0.2924,0.2843,0.2843,0.2843,0.2842,0,0.2852,0.2874,0.2847,0.2861,0.2884,0.2861,0.2885,0.2878,0.2873,0.2884,0.2858,0.287,0.2846,0.2855,0.2841,0.2862,0.2863,0.2857,0.2854,0.286,0.2861,0.2862,0.2858,0.2845,0.2844,0.2844,0.2843,0,0.2925,0.2908,0.2929,0.2916,0.2913,0.2931,0.292,0.2931,0.292,0.2935,0.2937,0.2919,0.2928,0.2911,0.2918,0.2909,0.2938,0.2928,0.2939,0.2936,0.2962,0.296,0.305,0.3061,0.2973,0.2974,0.2975,0,0.2968,0.2983,0.2972,0.2977,0.2974,0.2983,0.2986,0.2964,0.2969,0.2965,0.2977,0.2984,0.2988,0.3004,0.2992,0.2997,0.2987,0.3018,0.2988,0.2993,0.2987,0.2987,0.2988,0.3025,0.3026,0.3027,0.3027,0,0.3045,0.3035,0.3041,0.3044,0.3048,0.3049,0.3048,0.3054,0.3031,0.3037,0.3046,0.3049,0.3055,0.3062,0.3064,0.306,0.304,0.3037,0.3043,0.305,0.3055,0.3052,0.2956,0.3035,0.3034,0.3034,0.3033,0.3033,0.3104,0.3116,0.311,0.3117,0.3113,0.3113,0.3123,0.3113,0.3119,0.3122,0.3109,0.312,0.3115,0.3115,0.3113,0.3122,0.3108,0.3117,0.3119,0.3121,0.3126,0.3053,0.3122,0.3122,0.3121,0.3121,0.3121,0,0.318,0.3174,0.318,0.318,0.3185,0.3165,0.3163,0.3168,0.3179,0.3175,0.3179,0.3189,0.3195,0.3183,0.3187,0.3197,0.3188,0.3198,0.3198,0.3197,0.3138,0.3132,0.3206,0.3206,0.3206,0.3206,0.3206,0.3206,0.322,0.324,0.323,0.3247,0.3241,0.3251,0.3252,0.3251,0.3248,0.326,0.3264,0.3256,0.3249,0.3253,0.3258,0.3254,0.3257,0.3271,0.3264,0.3209,0.3201,0.3193,0.3188,0.3272,0.3272,0.3323,0.3323,0.3324]}]]